Location: ???? ????
(31.2831°N, 45.5190°E)
Time: 04:29:38
(UTC+00:00)

Cosmos 1818 - Pass Details

Date: 24 February 2021
Orbit: 772 x 801 km, 65.0° (Epoch: 14 April)

Event Time Altitude Azimuth Distance (km) Brightness Sun altitude
Rises 15:31:01 0° 337° (NNW) 3,311 7.0 -9.0°
Reaches altitude 10° 15:33:30 10° 342° (NNW) 2,378 6.2 -9.5°
Maximum altitude 15:38:53 56° 60° (ENE) 950 3.7 -10.7°
Drops below altitude 10° 15:44:12 10° 138° (SE) 2,359 5.7 -11.8°
Sets 15:46:40 0° 143° (SE) 3,282 6.4 -12.3°
